Location: Boncourt
(49.6160°N, 3.9448°E)
Time: 08:27:16
(UTC+00:00)

Cosmos 909 Rocket - Pass Details

Date: 09 February 2023
Orbit: 989 x 2090 km, 65.9° (Epoch: 24 March)

Event Time Altitude Azimuth Distance (km) Brightness Sun altitude
Rises 20:09:44 0° 321° (NW) 4,199 8.0 -32.1°
Reaches altitude 10° 20:12:42 10° 319° (NW) 3,099 7.2 -32.6°
Enters shadow 20:19:28 66° 252° (WSW) 1,138 4.3 -33.6°
